[[{"header":{"parameterUnit":"m.s-1","parameterCategory":1,"la1":30.2991,"la2":30.254,"lo1":-89.0895,"lo2":-89.0444,"dy":0.0017,"dx":0.0017,"nx":28,"ny":28,"refTime":"2024-05-09T09:00:00:Z","depth":0,"parameterNumber":2,"parameterNumberName":"U-component_of_WINDS"},"data":[0,0,0,0,0,0,0,0,0,0,0,0,0,0,0,0,0,0,0,0,0,0,0,0,0,0,0,0,0,0,0,0,0,0,0,0,0,0,0,0,0,0,0,0,0,0,0,0,0,0,0,0,0,0,0,0,0,0,0.1678,0.1679,0,0.1779,0.178,0.1781,0.1811,0.181,0.181,0.1809,0.1916,0.1919,0.1922,0,0,0,0,0,0,0,0,0,0,0,0,0,0.1513,0.1516,0.1678,0.1679,0.168,0.1778,0.178,0.1781,0.1811,0.181,0.181,0.1809,0.1915,0.1918,0.1922,0,0,0,0,0,0,0,0,0,0,0,0,0,0.1596,0.1517,0.1677,0.1707,0.171,0.1778,0.178,0.1782,0.1811,0.181,0.181,0.1809,0.1913,0.1918,0.1923,0.197,0,0,0.1938,0.194,0,0,0,0,0,0,0,0,0.1591,0.1602,0.1701,0.1705,0.1709,0.1781,0.1761,0.1845,0.1811,0.1773,0.1809,0.1808,0.1872,0.188,0.1901,0.1975,0.1979,0.1939,0.1942,0.1944,0.1945,0,0,0,0,0,0,0,0.1586,0.1598,0.1718,0.1703,0.1707,0.1716,0.1727,0.1777,0.1826,0.1776,0.1779,0.179,0.1874,0.1896,0.1904,0.1981,0.1938,0.1943,0.1946,0.1948,0.2098,0.2099,0,0,0,0,0,0,0.1574,0.1593,0.1715,0.1721,0.1647,0.1719,0.1731,0.1759,0.1825,0.1834,0.1791,0.1791,0.1888,0.1898,0.1907,0.1966,0.1944,0.1948,0.1951,0.2097,0.2098,0.2099,0,0,0,0,0,0,0.1571,0.1585,0.171,0.1658,0.1674,0.1723,0.1754,0.1761,0.1784,0.1836,0.1845,0.1804,0.1888,0.19,0.1954,0.197,0.1951,0.1955,0.2095,0.2097,0.2098,0.2084,0,0,0,0,0,0,0.1566,0.1584,0.1601,0.1658,0.1677,0.1754,0.1755,0.1764,0.1792,0.1793,0.1851,0.186,0.1888,0.1946,0.1959,0.1977,0.1959,0.2094,0.2096,0.2098,0.2083,0.2085,0.2086,0,0,0,0,0,0.156,0.1594,0.1602,0.1617,0.17,0.1755,0.1766,0.1797,0.1793,0.1812,0.1845,0.1858,0.1966,0.1951,0.1966,0.1986,0.2093,0.2096,0.2098,0.2083,0.2084,0.2086,0,0,0,0,0,0,0.1539,0.1602,0.1612,0.1665,0.1704,0.176,0.1784,0.1798,0.184,0.184,0.1877,0.189,0.194,0.1969,0.1951,0.2034,0.203,0.2036,0.2014,0.2016,0.2018,0.201,0.1963,0,0,0,0,0,0.1541,0.158,0.1633,0.1674,0.1694,0.1735,0.1761,0.1781,0.1824,0.1841,0.1878,0.192,0.1963,0.1991,0.2034,0.2087,0.21,0.2108,0.211,0.2111,0.2115,0.2145,0.2149,0.2106,0.2106,0.2106,0,0,0.1545,0.1583,0.1606,0.1671,0.1704,0.1744,0.1749,0.1792,0.1822,0.1848,0.19,0.1929,0.1978,0.2031,0.2056,0.2056,0.2129,0.2113,0.2114,0.2118,0.2147,0.2151,0.2155,0.2108,0.2107,0.2107,0,0,0.1572,0.1605,0.1643,0.1676,0.1725,0.1753,0.1762,0.1816,0.1835,0.1888,0.1908,0.1945,0.2019,0.2053,0.208,0.2119,0.2133,0.2132,0.214,0.2169,0.2172,0.2175,0.2189,0.2194,0.2136,0.2136,0.2136,0,0.157,0.163,0.1661,0.1702,0.173,0.1754,0.1793,0.1824,0.1885,0.1904,0.1903,0.1996,0.2031,0.2092,0.2101,0.2122,0.2134,0.2126,0.2169,0.2172,0.2176,0.2189,0.2195,0.2136,0.2136,0.2136,0.2136,0,0.1626,0.1668,0.1693,0.175,0.1781,0.1821,0.1858,0.1886,0.1903,0.1931,0.1984,0.2027,0.2078,0.2094,0.2112,0.2158,0.2156,0.2161,0.2158,0.2179,0.2192,0.2198,0.2135,0.2135,0.2135,0.2135,0,0,0.1644,0.1717,0.1725,0.1751,0.1807,0.184,0.1881,0.1931,0.1954,0.1995,0.2031,0.2092,0.2097,0.2128,0.2149,0.2175,0.2203,0.2177,0.2178,0.218,0.2256,0.2252,0.2257,0.2212,0.2213,0.2214,0.2252,0,0.1678,0.1751,0.1779,0.1839,0.1878,0.1901,0.1937,0.1975,0.2002,0.2039,0.207,0.2113,0.2116,0.2134,0.216,0.2194,0.2218,0.2191,0.2246,0.2247,0.2232,0.2264,0.226,0.2294,0.2257,0.2258,0.2259,0,0.1727,0.1768,0.1831,0.1881,0.1899,0.193,0.1978,0.2013,0.2057,0.2075,0.2109,0.2129,0.2173,0.2167,0.2229,0.221,0.2234,0.2254,0.2256,0.2262,0.2254,0.2271,0.2305,0.231,0.2267,0.2267,0.2266,0,0.1733,0.1803,0.185,0.1872,0.1932,0.1954,0.198,0.2024,0.2051,0.2093,0.2111,0.2158,0.2184,0.222,0.2252,0.2245,0.2311,0.2308,0.2328,0.2327,0.2341,0.2339,0.2379,0.2356,0.2356,0.2356,0.2356,0,0.1768,0.1806,0.1854,0.1882,0.1925,0.1958,0.2,0.2028,0.2067,0.2102,0.2125,0.2158,0.2198,0.2236,0.2262,0.2309,0.2321,0.2337,0.2344,0.2335,0.2333,0.2351,0.235,0.2357,0.2357,0.2357,0.2357,0,0.1782,0.1815,0.1868,0.192,0.1934,0.1964,0.2009,0.2038,0.2066,0.211,0.2122,0.2166,0.2212,0.2248,0.2308,0.2326,0.2375,0.2383,0.236,0.2363,0.2381,0.2379,0.2434,0.2442,0.2414,0.2414,0.2414,0,0.1802,0.1831,0.1886,0.1911,0.1937,0.1976,0.2004,0.2038,0.2066,0.2118,0.2141,0.2189,0.2228,0.2301,0.2339,0.2385,0.2393,0.2409,0.24,0.239,0.2393,0.2391,0.2394,0.241,0.241,0.241,0.241,0,0.1833,0.1848,0.1887,0.1932,0.1965,0.2002,0.2039,0.2059,0.2099,0.213,0.2176,0.2207,0.2268,0.2314,0.2364,0.2393,0.2408,0.2413,0.242,0.2411,0.2397,0.2405,0.2363,0.2411,0.2411,0.2411,0.2411,0.2411,0.1851,0.1878,0.1921,0.1963,0.1995,0.2029,0.2059,0.209,0.2129,0.218,0.2198,0.2246,0.229,0.2358,0.2386,0.2425,0.2426,0.2436,0.2439,0.2441,0.244,0.2391,0.2434,0.2434,0.2434,0.2434,0.2434,0,0.1884,0.1912,0.1951,0.2002,0.2036,0.2047,0.2089,0.2116,0.2158,0.2197,0.2235,0.2288,0.2334,0.2375,0.2422,0.2445,0.2453,0.2456,0.2455,0.2461,0.2436,0.2425,0.2449,0.2449,0.2449,0.2449,0.2449,0.2449,0.1904,0.195,0.197,0.2032,0.2061,0.2107,0.213,0.2163,0.2194,0.2252,0.2289,0.2315,0.2355,0.2405,0.2448,0.2459,0.2475,0.2476,0.2489,0.2465,0.2463,0.2461,0.2451,0.2479,0.2479,0.2511,0.2511,0.2511]},{"header":{"parameterUnit":"m.s-1","parameterCategory":1,"la1":30.2991,"la2":30.254,"lo1":-89.0895,"lo2":-89.0444,"dy":0.0017,"dx":0.0017,"nx":28,"ny":28,"refTime":"2024-05-09T09:00:00:Z","depth":0,"parameterNumber":3,"parameterNumberName":"V-component_of_WINDS"},"data":[0,0,0,0,0,0,0,0,0,0,0,0,0,0,0,0,0,0,0,0,0,0,0,0,0,0,0,0,0,0,0,0,0,0,0,0,0,0,0,0,0,0,0,0,0,0,0,0,0,0,0,0,0,0,0,0,0,0,6.1444,6.1446,0,6.1617,6.1619,6.1621,6.1624,6.1622,6.162,6.1618,6.1787,6.1794,6.18,0,0,0,0,0,0,0,0,0,0,0,0,0,6.1108,6.1114,6.1444,6.1446,6.1448,6.1617,6.1619,6.1621,6.1625,6.1622,6.1619,6.1617,6.1785,6.1793,6.1801,0,0,0,0,0,0,0,0,0,0,0,0,0,6.1264,6.1116,6.1443,6.147,6.1474,6.1616,6.1619,6.1622,6.1625,6.1622,6.1619,6.1616,6.1783,6.1792,6.1802,6.1926,0,0,6.1831,6.1836,0,0,0,0,0,0,0,0,6.1255,6.1277,6.1464,6.1469,6.1474,6.1596,6.1563,6.1724,6.1626,6.1568,6.1618,6.1614,6.1726,6.174,6.1779,6.1934,6.1941,6.1832,6.1838,6.1842,6.1845,0,0,0,0,0,0,0,6.1245,6.1269,6.1512,6.1467,6.1473,6.1471,6.149,6.1593,6.1662,6.1572,6.1573,6.1594,6.1727,6.177,6.1783,6.1943,6.1832,6.1841,6.1847,6.185,6.2207,6.2211,0,0,0,0,0,0,6.123,6.126,6.1506,6.1517,6.1355,6.148,6.1501,6.156,6.1661,6.1674,6.1597,6.1594,6.1755,6.1772,6.1789,6.194,6.1842,6.1851,6.1857,6.2204,6.2208,6.2212,0,0,0,0,0,0,6.1222,6.1252,6.1499,6.1389,6.1421,6.1489,6.1555,6.1565,6.1607,6.168,6.1691,6.1628,6.1753,6.1775,6.1892,6.1946,6.1856,6.1865,6.2199,6.2205,6.221,6.2244,0,0,0,0,0,0,6.1213,6.1249,6.1299,6.139,6.1426,6.1602,6.1559,6.157,6.1625,6.1623,6.1712,6.1723,6.1752,6.1878,6.1902,6.1958,6.1872,6.2195,6.2202,6.2208,6.2239,6.225,6.226,0,0,0,0,0,6.1201,6.13,6.1301,6.1331,6.1491,6.1605,6.1626,6.1659,6.1629,6.1679,6.1725,6.172,6.1937,6.1889,6.1917,6.1977,6.2191,6.22,6.2208,6.2234,6.2248,6.226,0,0,0,0,0,0,6.121,6.1312,6.1315,6.1447,6.1518,6.1606,6.1669,6.1673,6.1752,6.1746,6.1782,6.1802,6.1918,6.1959,6.1904,6.2102,6.206,6.2074,6.2071,6.2085,6.2095,6.2082,6.188,0,0,0,0,0,6.1228,6.1316,6.1399,6.1507,6.1543,6.16,6.1651,6.1671,6.1745,6.1774,6.1829,6.1898,6.1981,6.2035,6.2116,6.2245,6.2263,6.2299,6.231,6.2319,6.233,6.24,6.2416,6.2239,6.2239,6.2238,0,0,6.1265,6.1332,6.1384,6.1511,6.1568,6.1655,6.1625,6.1719,6.1783,6.1787,6.1901,6.1944,6.2023,6.2146,6.2203,6.2184,6.2383,6.2329,6.2335,6.2342,6.241,6.2426,6.2441,6.2244,6.2243,6.2242,0,0,6.1377,6.1437,6.1534,6.1593,6.168,6.1718,6.1741,6.1829,6.1858,6.1974,6.1978,6.2054,6.2197,6.2253,6.2301,6.2434,6.2432,6.2459,6.2515,6.2583,6.2597,6.2609,6.2655,6.2672,6.247,6.2471,6.2471,0,6.1411,6.1546,6.1582,6.1677,6.1732,6.1743,6.1839,6.1893,6.2001,6.2038,6.2016,6.2196,6.225,6.2386,6.2419,6.2457,6.2483,6.2449,6.2592,6.2605,6.2617,6.2662,6.2679,6.2473,6.2473,6.2473,6.2472,0,6.1582,6.1675,6.1743,6.185,6.1912,6.2007,6.2056,6.2114,6.2129,6.2167,6.2284,6.235,6.2444,6.2478,6.2491,6.2615,6.2601,6.2585,6.2544,6.2636,6.2678,6.2696,6.2477,6.2476,6.2475,6.2475,0,0,6.1705,6.1832,6.1856,6.1905,6.2003,6.2074,6.2168,6.2263,6.2311,6.2385,6.2464,6.2585,6.2572,6.2625,6.2646,6.2705,6.2805,6.2682,6.2684,6.2701,6.2943,6.2954,6.2973,6.2805,6.2808,6.2811,6.2936,0,6.1826,6.1998,6.2034,6.2181,6.2266,6.2277,6.2359,6.2426,6.2465,6.254,6.2582,6.2667,6.2643,6.2676,6.2735,6.278,6.2854,6.2772,6.2875,6.2879,6.2854,6.2995,6.3007,6.3122,6.2953,6.2956,6.2958,0,6.1991,6.2073,6.2229,6.2315,6.2352,6.2426,6.2515,6.2588,6.2663,6.2687,6.2747,6.2761,6.2857,6.2812,6.2943,6.2887,6.2931,6.296,6.2965,6.2975,6.2923,6.3008,6.316,6.3176,6.2985,6.2983,6.2981,0,6.2063,6.2211,6.2324,6.2365,6.2469,6.252,6.2565,6.2638,6.2692,6.2769,6.2804,6.2891,6.2937,6.3002,6.3038,6.3002,6.3166,6.3124,6.3186,6.3185,6.3219,6.3216,6.3379,6.325,6.3249,6.3249,6.3249,0,6.2195,6.229,6.2358,6.2427,6.2533,6.2572,6.2675,6.2719,6.2783,6.2859,6.2873,6.2943,6.2987,6.3062,6.3091,6.3194,6.3215,6.3235,6.3241,6.3233,6.323,6.3262,6.3254,6.3254,6.3253,6.3252,6.3251,0,6.2293,6.2343,6.2466,6.2555,6.2579,6.2653,6.2728,6.2794,6.2833,6.2928,6.2952,6.3013,6.3102,6.3145,6.3255,6.3274,6.3391,6.3392,6.3366,6.3368,6.3427,6.3421,6.3615,6.3642,6.3496,6.3497,6.3498,0,6.2374,6.2447,6.2544,6.2598,6.2645,6.273,6.2786,6.2827,6.2884,6.2976,6.303,6.3121,6.3196,6.3338,6.339,6.3474,6.3476,6.3539,6.3489,6.3479,6.3476,6.3471,6.3477,6.3547,6.3549,6.355,6.3551,0,6.251,6.2532,6.2614,6.2705,6.2772,6.2845,6.2916,6.2958,6.3009,6.3073,6.3166,6.3224,6.3338,6.3427,6.3515,6.3558,6.3562,6.3566,6.3585,6.3577,6.3558,6.3568,6.3389,6.3561,6.356,6.3559,6.3559,6.3558,6.2601,6.2667,6.2746,6.2837,6.2895,6.2961,6.3028,6.3076,6.3156,6.3253,6.3272,6.337,6.3442,6.3561,6.3607,6.3683,6.3668,6.3695,6.3702,6.3708,6.371,6.3548,6.3699,6.3699,6.3699,6.3698,6.3698,0,6.2738,6.279,6.2873,6.2973,6.3044,6.3045,6.3124,6.3182,6.327,6.3338,6.3412,6.3518,6.3605,6.3664,6.3751,6.38,6.3804,6.3821,6.3817,6.3827,6.3719,6.3694,6.3817,6.3817,6.3817,6.3817,6.3817,6.3817,6.2817,6.2929,6.2959,6.3098,6.3148,6.3247,6.3292,6.3352,6.3407,6.3526,6.3599,6.3638,6.3702,6.3794,6.3872,6.3887,6.3917,6.3935,6.3949,6.3847,6.3835,6.3823,6.3799,6.3942,6.3942,6.405,6.4051,6.4052]}]]